Wind_Speed
10 12 15 17 18 21 24 25 28 28 29 31 34 36 37 37 38 40 40 41 41 41 40 38 37 36 35 34 33 32 31 30 29 28 26 24 22 19 18 15 13 13 16 18
12 15 17 18 20 22 22 24 27 30 31 35 37 38 38 38 39 40 41 41 41 41 40 39 37 36 34 32 31 30 29 27 26 25 22 20 17 14 12 10 8 5 6 10
15 17 19 21 22 25 24 25 29 33 36 39 39 38 38 38 40 41 41 40 40 40 40 39 38 36 34 32 30 29 28 25 23 22 19 17 15 12 10 8 6 4 4 6
22 23 24 21 28 31 30 31 34 37 39 40 40 40 39 41 43 43 43 42 41 41 40 40 39 37 34 31 29 28 27 24 21 19 17 16 14 11 10 8 7 6 6 7
27 28 28 26 34 35 34 37 40 41 43 44 44 43 42 44 44 44 44 44 43 42 41 40 38 37 34 31 29 28 26 23 20 18 17 15 13 12 11 10 9 8 8 8
30 31 32 35 39 40 40 44 45 46 48 49 49 50 48 47 46 46 46 45 44 43 41 39 38 36 35 32 29 28 26 23 19 17 16 15 13 12 11 11 11 10 9 9
36 37 37 43 44 44 45 48 48 49 50 51 51 51 52 51 50 49 48 46 45 44 42 39 37 36 34 32 29 27 25 22 19 17 15 15 13 12 11 11 10 10 9 7
38 40 42 45 47 47 49 51 52 53 55 56 56 55 55 55 53 51 50 48 46 44 42 39 37 36 34 32 29 27 25 23 20 18 16 14 12 11 11 10 9 8 7 5
42 43 45 47 49 51 53 55 57 59 60 62 63 63 62 60 58 54 51 48 46 44 41 40 37 35 34 32 30 28 27 24 21 19 17 15 13 12 11 10 9 8 6 5
44 46 48 50 52 54 57 60 63 65 66 67 68 68 67 65 61 57 53 50 47 45 42 41 39 36 35 32 31 30 29 27 24 21 18 17 15 13 12 10 9 8 7 6
45 47 50 53 56 59 61 64 66 67 69 70 71 71 70 68 64 61 58 54 50 49 46 43 42 39 35 33 31 32 32 30 27 24 21 19 17 15 13 11 10 9 8 8
49 53 56 58 61 63 66 67 69 71 73 73 74 74 73 71 68 65 62 58 53 50 47 44 43 40 36 34 33 33 34 33 30 27 24 22 20 17 15 14 13 12 11 11
54 57 60 63 66 68 71 72 73 74 75 75 73 72 70 68 65 63 62 60 55 51 48 45 43 41 39 37 34 34 35 35 34 30 27 25 23 20 18 16 15 14 14 14
58 61 64 68 70 72 73 73 73 72 69 66 63 60 56 54 52 50 50 51 51 50 48 46 43 42 42 40 36 35 36 37 36 33 30 27 25 22 20 19 17 17 16 16
63 67 69 71 72 73 73 71 67 62 58 54 50 47 45 44 43 41 39 39 42 45 45 44 42 41 42 40 37 37 37 38 38 36 33 30 27 25 22 20 19 18 17 17
68 70 71 72 72 71 67 60 54 50 47 43 41 41 42 42 40 37 36 35 35 36 40 42 42 39 41 40 38 38 38 38 39 39 36 33 30 28 25 23 21 20 19 19
72 73 73 72 69 63 55 48 45 43 41 41 42 42 42 42 41 38 37 36 35 33 34 39 41 40 40 40 39 38 38 38 39 40 39 36 33 30 27 25 23 21 20 20
71 71 69 64 58 51 46 43 41 41 42 44 45 44 43 43 42 40 39 37 34 31 31 36 39 40 38 39 38 38 38 38 38 40 39 37 34 32 30 27 25 24 21 20
68 65 59 52 47 45 43 42 42 43 44 45 45 45 45 44 43 42 39 36 33 28 28 34 39 40 39 39 39 40 39 36 35 37 38 37 35 33 31 28 26 25 22 19
61 54 48 44 42 42 41 42 43 44 45 46 46 47 46 45 43 41 38 34 31 27 26 32 37 38 38 38 39 41 40 35 33 34 34 34 34 32 30 28 26 23 20 18
52 46 42 41 40 39 39 41 43 45 45 46 47 48 47 45 42 39 36 32 27 24 25 31 35 37 37 37 37 40 39 34 31 30 30 31 32 31 29 26 24 21 18 16
46 42 40 40 38 37 37 40 43 45 45 46 47 47 46 43 40 36 32 27 23 22 24 30 34 36 36 35 37 40 40 35 31 28 27 28 28 28 26 24 21 19 16 14
42 40 39 38 36 36 37 40 42 43 45 46 47 46 44 42 39 34 26 22 20 21 24 29 33 35 35 34 36 39 39 36 31 28 26 26 26 25 24 22 20 17 14 12
40 38 36 34 33 35 36 38 40 42 44 46 45 43 42 39 33 28 21 17 15 21 26 29 33 35 33 33 35 37 38 35 31 27 26 26 25 25 23 21 19 16 14 13
38 35 32 31 31 33 35 38 39 41 43 44 43 41 38 35 29 22 16 11 13 21 27 30 33 33 31 32 35 36 38 36 32 28 27 27 26 25 23 21 18 16 14 13
36 32 29 29 31 33 36 39 41 41 43 43 41 39 36 32 26 19 11 6 12 22 27 30 31 31 29 30 33 36 36 36 33 30 29 28 27 26 23 21 18 16 14 13
31 28 26 27 28 31 34 38 39 40 41 41 38 37 34 30 24 15 7 3 14 22 26 28 29 28 27 28 31 34 35 35 35 32 30 29 28 26 24 22 19 17 15 15
Wind_Direction
290 285 283 286 288 287 289 293 293 296 296 296 294 298 302 305 307 307 308 309 310 311 312 311 307 303 298 293 291 292 293 293 295 299 300 302 306 308 313 312 306 281 259 248
296 293 293 294 292 290 292 293 292 294 294 294 298 302 304 306 306 304 307 309 309 310 311 312 309 305 300 295 292 293 293 293 295 298 300 302 309 315 322 326 324 306 253 230
302 298 299 302 297 296 300 297 295 295 297 299 301 301 302 301 299 301 305 306 307 309 310 310 310 307 301 294 290 292 291 291 292 294 295 297 302 308 313 317 311 297 263 241
310 306 308 307 297 297 301 300 296 297 299 299 299 300 300 298 299 302 304 305 306 308 309 309 308 306 303 294 286 288 289 288 288 288 288 290 294 296 300 301 295 286 276 262
312 310 310 301 294 298 303 301 300 302 300 299 300 300 299 298 299 301 302 303 303 303 304 305 305 304 301 296 284 282 284 283 282 281 279 281 283 285 284 285 284 279 275 273
312 310 311 301 301 307 309 304 305 304 302 301 301 300 300 298 298 298 298 298 298 298 299 300 301 300 300 294 283 277 278 277 275 274 273 273 274 277 278 278 278 273 272 273
312 310 306 302 307 308 305 302 301 299 298 297 297 296 296 296 296 295 294 294 294 294 294 295 295 295 296 292 281 273 271 269 266 265 267 267 267 269 271 272 272 269 270 268
306 304 302 304 304 303 301 299 298 297 296 296 296 295 294 293 293 292 291 290 289 289 288 288 288 288 288 288 277 268 263 262 260 258 259 260 258 260 261 259 259 262 262 263
306 303 301 301 300 299 299 299 298 298 297 296 295 294 293 292 291 290 288 286 284 283 282 281 280 281 282 282 273 262 256 253 253 253 255 254 253 253 250 249 250 249 254 258
304 302 302 301 301 301 301 301 300 299 297 296 294 293 291 290 288 286 283 281 279 276 277 277 275 272 272 273 268 257 249 246 247 247 249 251 250 248 245 243 242 244 250 251
301 301 302 303 303 303 302 301 300 298 296 294 292 291 288 286 283 281 279 277 276 273 271 270 268 263 264 266 265 252 244 241 242 243 244 246 245 244 243 241 242 246 250 252
305 305 305 306 305 304 303 301 299 297 296 294 293 292 290 288 284 281 278 276 273 269 267 264 262 260 257 258 259 249 240 238 238 239 240 241 242 241 241 241 242 247 250 254
307 308 307 307 306 305 303 301 300 298 297 296 296 297 296 294 291 286 281 277 273 269 264 261 258 255 251 251 251 245 238 235 234 235 236 238 238 238 239 241 245 249 254 257
309 309 309 308 307 306 304 302 301 301 301 302 303 303 302 301 299 295 289 281 274 268 262 256 252 249 246 245 245 241 236 233 231 231 232 234 236 237 239 242 247 252 257 261
312 312 311 310 309 306 305 305 305 306 307 307 307 307 308 307 305 301 296 288 278 267 257 249 245 244 243 240 237 235 233 231 229 228 229 232 235 237 239 242 247 252 257 261
315 314 312 310 309 309 310 311 312 313 312 312 311 309 308 308 308 305 301 296 288 274 255 244 240 240 239 236 232 230 230 229 228 226 227 229 233 236 239 243 247 250 255 260
317 315 313 312 312 313 315 316 316 315 314 314 312 310 309 308 307 305 302 299 293 280 258 242 235 234 234 233 227 224 227 228 227 225 226 228 232 235 238 241 245 250 254 258
316 314 313 313 315 317 318 318 318 316 316 315 313 312 310 309 307 304 302 298 293 280 256 238 231 229 229 230 222 218 223 226 226 224 225 228 231 234 236 241 246 250 253 254
315 314 315 316 318 319 320 320 320 319 318 316 315 313 311 308 305 302 299 295 291 278 251 231 225 224 226 226 220 214 218 223 224 223 224 227 229 231 235 240 244 248 248 247
316 316 317 318 319 320 321 321 321 321 320 319 317 315 313 311 306 301 297 293 286 274 246 225 219 219 220 222 216 209 213 219 220 221 224 224 225 228 232 237 239 242 240 239
319 320 320 320 321 322 322 323 323 323 323 321 319 318 316 313 308 303 297 292 280 262 239 218 212 213 215 217 212 204 208 214 217 219 220 221 221 224 227 228 229 230 230 230
322 322 322 322 323 325 326 326 326 326 325 324 323 322 320 317 312 306 299 290 271 249 228 211 206 206 209 211 206 202 205 209 212 214 215 216 216 216 217 217 218 219 221 223
324 323 323 324 325 327 328 328 329 329 329 328 327 325 324 321 318 311 299 284 263 234 213 202 200 200 203 204 202 199 201 205 208 210 209 208 207 207 206 206 207 209 212 218
324 323 324 325 328 329 330 332 334 334 335 335 333 329 328 328 325 317 302 280 250 216 199 194 193 194 197 199 197 197 197 199 202 204 202 201 199 197 197 198 201 205 210 217
327 326 327 329 331 333 335 337 339 340 340 339 338 336 336 336 334 326 311 277 227 200 191 187 187 190 193 195 195 195 196 197 199 200 198 196 195 194 195 198 202 207 214 222
330 330 331 333 335 338 339 340 342 343 343 344 343 342 341 342 341 335 323 268 203 186 181 180 182 185 188 192 193 193 196 198 199 199 198 196 196 197 200 203 207 214 221 229
333 332 333 335 339 341 343 344 347 347 347 347 348 349 349 350 351 348 343 180 172 172 171 171 176 180 184 189 191 193 196 199 199 200 200 199 201 203 207 211 216 222 230 238
Height
5842 5840 5839 5837 5835 5833 5831 5828 5824 5821 5818 5814 5807 5802 5798 5793 5788 5783 5778 5772 5767 5761 5756 5752 5747 5743 5739 5736 5734 5732 5729 5727 5724 5721 5718 5714 5709 5705 5700 5696 5694 5692 5694 5696
5839 5836 5834 5832 5830 5828 5825 5821 5817 5813 5810 5804 5798 5794 5790 5786 5780 5775 5770 5765 5759 5754 5749 5744 5740 5735 5732 5729 5727 5725 5722 5720 5718 5715 5712 5709 5706 5702 5699 5696 5693 5692 5693 5694
5835 5832 5829 5827 5824 5821 5818 5814 5809 5805 5802 5795 5791 5787 5783 5778 5771 5766 5762 5757 5752 5746 5741 5737 5733 5729 5724 5722 5720 5718 5716 5714 5712 5710 5708 5705 5703 5700 5697 5695 5693 5693 5693 5694
5829 5827 5824 5823 5816 5813 5810 5806 5800 5796 5792 5786 5782 5777 5774 5767 5761 5757 5753 5748 5743 5738 5734 5729 5725 5721 5718 5715 5713 5712 5710 5708 5707 5705 5703 5701 5699 5698 5696 5694 5693 5692 5692 5693
5823 5820 5817 5814 5806 5804 5802 5796 5790 5787 5781 5776 5771 5767 5763 5756 5751 5747 5742 5738 5733 5729 5725 5721 5717 5714 5711 5708 5706 5705 5704 5703 5701 5700 5699 5697 5696 5695 5693 5692 5691 5691 5691 5691
5816 5812 5808 5803 5798 5794 5792 5785 5779 5774 5768 5763 5758 5754 5751 5745 5741 5736 5732 5727 5723 5719 5716 5713 5709 5706 5703 5701 5699 5699 5698 5697 5696 5695 5694 5693 5692 5691 5690 5690 5689 5688 5688 5689
5806 5803 5799 5792 5790 5787 5783 5776 5770 5763 5757 5751 5746 5741 5736 5732 5728 5723 5719 5715 5711 5708 5706 5704 5700 5697 5695 5693 5692 5691 5691 5691 5690 5690 5689 5688 5688 5687 5687 5686 5686 5686 5686 5686
5801 5796 5792 5786 5781 5776 5770 5762 5756 5750 5743 5737 5731 5725 5720 5716 5712 5708 5705 5701 5698 5696 5694 5692 5690 5687 5686 5684 5684 5684 5684 5684 5684 5684 5684 5684 5683 5683 5683 5683 5683 5683 5683 5684
5792 5787 5780 5775 5768 5762 5755 5748 5741 5734 5727 5720 5714 5708 5702 5697 5693 5690 5687 5685 5683 5681 5680 5679 5677 5675 5675 5675 5674 5675 5677 5677 5678 5678 5678 5678 5679 5679 5679 5679 5680 5680 5681 5682
5781 5774 5768 5762 5755 5748 5741 5733 5725 5717 5708 5701 5694 5687 5682 5677 5673 5670 5669 5667 5666 5665 5666 5666 5665 5663 5662 5663 5664 5666 5668 5670 5671 5672 5672 5673 5674 5674 5675 5676 5676 5678 5679 5680
5771 5764 5756 5749 5742 5734 5725 5716 5707 5698 5689 5679 5671 5665 5659 5655 5652 5649 5648 5647 5647 5648 5649 5651 5650 5650 5650 5651 5653 5655 5658 5661 5663 5664 5666 5667 5668 5669 5671 5672 5673 5674 5676 5677
5758 5751 5743 5735 5726 5717 5707 5698 5688 5678 5668 5658 5648 5640 5634 5630 5627 5625 5625 5625 5626 5627 5630 5632 5634 5635 5635 5637 5640 5643 5647 5651 5654 5657 5659 5661 5662 5664 5666 5667 5669 5671 5672 5674
5745 5736 5728 5718 5709 5698 5687 5677 5666 5655 5644 5635 5626 5617 5610 5605 5602 5600 5600 5600 5602 5606 5610 5614 5617 5620 5622 5623 5626 5630 5635 5640 5644 5648 5651 5653 5656 5658 5660 5662 5664 5666 5668 5670
5731 5722 5712 5701 5690 5678 5665 5654 5643 5634 5624 5614 5606 5598 5591 5585 5581 5578 5576 5576 5578 5583 5589 5594 5599 5604 5607 5609 5612 5617 5622 5628 5633 5638 5642 5646 5649 5652 5654 5657 5659 5661 5663 5665
5714 5703 5692 5680 5668 5656 5644 5633 5623 5614 5606 5598 5590 5583 5577 5572 5567 5563 5560 5557 5558 5562 5568 5574 5581 5586 5590 5594 5598 5604 5610 5616 5623 5628 5633 5638 5641 5645 5648 5651 5653 5656 5658 5659
5697 5685 5672 5660 5648 5637 5626 5616 5607 5599 5592 5585 5578 5572 5566 5560 5555 5551 5547 5544 5542 5544 5549 5555 5563 5569 5575 5579 5585 5591 5598 5605 5611 5618 5624 5628 5633 5637 5641 5644 5647 5650 5652 5653
5678 5666 5653 5640 5629 5620 5611 5603 5595 5588 5581 5574 5568 5561 5555 5549 5544 5540 5536 5532 5530 5529 5532 5538 5546 5553 5559 5565 5571 5579 5586 5593 5600 5607 5614 5620 5625 5630 5634 5637 5640 5643 5646 5647
5659 5646 5634 5622 5613 5605 5599 5592 5585 5578 5571 5564 5557 5550 5544 5538 5532 5528 5524 5520 5517 5516 5518 5523 5531 5539 5546 5553 5559 5567 5575 5583 5590 5597 5604 5611 5617 5622 5626 5630 5633 5636 5639 5641
5643 5631 5620 5611 5603 5595 5589 5582 5575 5568 5561 5553 5545 5538 5532 5525 5519 5514 5510 5506 5504 5503 5505 5509 5517 5526 5534 5541 5549 5557 5565 5574 5581 5588 5595 5602 5608 5614 5618 5623 5626 5629 5632 5635
5628 5618 5609 5602 5595 5587 5580 5573 5566 5558 5551 5542 5534 5526 5519 5512 5505 5500 5495 5493 5491 5491 5493 5498 5506 5515 5524 5531 5539 5548 5557 5566 5573 5580 5587 5594 5600 5606 5611 5615 5619 5622 5625 5628
5616 5607 5600 5593 5586 5580 5573 5565 5557 5549 5540 5532 5523 5514 5506 5499 5492 5486 5482 5480 5480 5479 5482 5488 5496 5506 5515 5523 5531 5540 5550 5559 5567 5573 5580 5587 5593 5599 5604 5608 5612 5616 5619 5622
5606 5598 5591 5584 5578 5572 5565 5557 5549 5540 5531 5522 5513 5503 5494 5486 5479 5473 5469 5467 5468 5469 5472 5479 5488 5498 5507 5516 5525 5534 5544 5553 5561 5568 5575 5581 5587 5592 5598 5602 5606 5610 5613 5616
5597 5590 5583 5577 5570 5564 5558 5551 5542 5533 5523 5513 5503 5493 5484 5475 5467 5461 5458 5457 5457 5460 5465 5473 5482 5492 5501 5510 5519 5529 5538 5548 5556 5563 5570 5576 5581 5587 5592 5597 5602 5605 5608 5611
5590 5583 5577 5570 5564 5558 5552 5545 5536 5527 5517 5506 5496 5485 5475 5466 5459 5452 5448 5448 5449 5453 5460 5468 5478 5488 5497 5506 5515 5525 5534 5544 5552 5559 5566 5572 5577 5583 5588 5593 5598 5601 5604 5607
5583 5576 5570 5565 5559 5553 5546 5539 5531 5522 5512 5502 5491 5480 5470 5460 5452 5447 5443 5443 5445 5450 5458 5466 5476 5486 5495 5504 5513 5522 5531 5540 5549 5556 5562 5569 5574 5580 5585 5590 5594 5597 5600 5603
5577 5571 5565 5560 5554 5548 5542 5534 5526 5517 5507 5498 5488 5477 5467 5458 5450 5445 5442 5442 5444 5450 5457 5466 5476 5486 5494 5503 5511 5520 5529 5538 5546 5553 5560 5566 5571 5577 5582 5586 5590 5594 5597 5599
5572 5567 5562 5558 5553 5547 5540 5532 5523 5514 5505 5495 5485 5476 5467 5459 5451 5446 5443 5444 5446 5452 5460 5468 5478 5487 5495 5502 5510 5518 5527 5535 5543 5550 5557 5563 5569 5574 5579 5583 5586 5590 5593 5595